Change the Weather History Date:

Sunday, October 28, 2012

  Actual Average Record
Temperature  
Mean Temperature 74 °F -  
Max Temperature 87 °F - - ()
Min Temperature 60 °F - - ()
Cooling Degree Days 8    
Growing Degree Days 24 (Base 50)    
Moisture  
Dew Point 55 °F    
Average Humidity 51    
Maximum Humidity 88    
Minimum Humidity 23    
Precipitation  
Precipitation 0.00 in - - ()
Sea Level Pressure  
Sea Level Pressure 29.65 in    
Wind  
Wind Speed 9 mph ()    
Max Wind Speed 20 mph    
Max Gust Speed -    
Visibility 6.2 miles    
Events      
T = Trace of Precipitation, MM = Missing Value Source: Averaged Metar Reports

Daily Weather History Graph

Daily Weather History Graph

Search for Another Location

Airport or City:

Trip Planner

Search our weather history database for the weather conditions in past years. The results will help you decide how hot, cold, wet, or windy it might be!

Date:

Astronomy

Oct. 28, 2012 Rise Set
Actual Time 6:52 AM EET 5:32 PM EET
Civil Twilight 6:24 AM EET 5:59 PM EET
Nautical Twilight 5:53 AM EET 6:31 PM EET
Astronomical Twilight 5:22 AM EET 7:02 PM EET
Moon 4:39 PM EET (10/28) 5:27 AM EET (10/28)
Length of Visible Light 11h 34m
Length of Day
10h 39m
Waxing Gibbous, 98% of the Moon is Illuminated
Oct 28
Waxing Gibbous
Oct 29
Full
Nov 7
Last Quarter
Nov 14
New
Nov 20
First Quarter

Hourly Weather History & Observations

Time (EET) Temp. Heat Index Dew Point Humidity Pressure Visibility Wind Dir Wind Speed Gust Speed Precip Events Conditions
12:50 AM 60.8 °F - 57.2 °F 88% 29.68 in 6.2 mi Calm Calm - N/A   Mostly Cloudy
1:50 AM 60.8 °F - 55.4 °F 82% 29.65 in 6.2 mi Calm Calm - N/A   Mostly Cloudy
2:50 AM 62.6 °F - 55.4 °F 77% 29.62 in 6.2 mi Calm Calm - N/A   Mostly Cloudy
3:50 AM 66.2 °F - 55.4 °F 68% 29.65 in 6.2 mi Calm Calm - N/A   Mostly Cloudy
3:50 AM 64.4 °F - 55.4 °F 73% 29.65 in 6.2 mi Calm Calm - N/A   Mostly Cloudy
4:50 AM 68.0 °F - 55.4 °F 64% 29.62 in 6.2 mi SSE 10.4 mph - N/A   Mostly Cloudy
5:20 AM 68.0 °F - 55.4 °F 64% 29.62 in 6.2 mi SSE 10.4 mph - N/A   Mostly Cloudy
5:50 AM 69.8 °F - 55.4 °F 60% 29.62 in 6.2 mi SSE 8.1 mph - N/A   Scattered Clouds
6:20 AM 68.0 °F - 55.4 °F 64% 29.62 in 6.2 mi SSE 9.2 mph - N/A   Scattered Clouds
6:50 AM 71.6 °F - 55.4 °F 57% 29.62 in 6.2 mi SSE 15.0 mph - N/A   Mostly Cloudy
7:20 AM 71.6 °F - 55.4 °F 57% 29.62 in 6.2 mi SE 12.7 mph - N/A   Mostly Cloudy
7:50 AM 71.6 °F - 55.4 °F 57% 29.62 in 6.2 mi ESE 9.2 mph - N/A   Mostly Cloudy
8:20 AM 75.2 °F - 53.6 °F 47% 29.65 in 6.2 mi SSE 16.1 mph - N/A   Mostly Cloudy
8:50 AM 75.2 °F - 55.4 °F 50% 29.65 in 6.2 mi SSE 15.0 mph - N/A   Mostly Cloudy
9:20 AM 77.0 °F - 55.4 °F 47% 29.65 in 6.2 mi South 16.1 mph - N/A   Mostly Cloudy
9:50 AM 77.0 °F - 55.4 °F 47% 29.65 in 6.2 mi SSE 16.1 mph - N/A   Mostly Cloudy
10:20 AM 78.8 °F - 57.2 °F 47% 29.65 in 6.2 mi SSE 17.3 mph - N/A   Mostly Cloudy
10:50 AM 78.8 °F - 55.4 °F 44% 29.65 in 6.2 mi SSE 19.6 mph - N/A   Mostly Cloudy
11:20 AM 80.6 °F 80.5 °F 55.4 °F 42% 29.65 in 6.2 mi SSE 18.4 mph - N/A   Mostly Cloudy
11:50 AM 82.4 °F 81.4 °F 53.6 °F 37% 29.65 in 6.2 mi SSE 18.4 mph - N/A   Mostly Cloudy
12:20 PM 84.2 °F 82.8 °F 53.6 °F 35% 29.65 in 6.2 mi SSE 19.6 mph - N/A   Mostly Cloudy
12:50 PM 82.4 °F 81.4 °F 53.6 °F 37% 29.62 in 6.2 mi SSE 18.4 mph - N/A   Mostly Cloudy
1:20 PM 82.4 °F - 51.8 °F 35% 29.65 in 6.2 mi SSE 18.4 mph - N/A   Mostly Cloudy
1:50 PM 82.4 °F 81.4 °F 53.6 °F 37% 29.62 in 6.2 mi SSE 12.7 mph - N/A   Mostly Cloudy
2:20 PM 82.4 °F 81.7 °F 55.4 °F 39% 29.62 in 6.2 mi SSE 12.7 mph - N/A   Mostly Cloudy
2:50 PM 87.8 °F - 50.0 °F 27% 29.65 in 6.2 mi SSW 16.1 mph - N/A   Mostly Cloudy
3:20 PM 87.8 °F - 48.2 °F 25% 29.65 in 6.2 mi SSW 15.0 mph - N/A   Mostly Cloudy
3:50 PM 86.0 °F - 44.6 °F 23% 29.65 in 6.2 mi SSW 18.4 mph - N/A   Mostly Cloudy
4:20 PM 86.0 °F - 46.4 °F 25% 29.65 in 6.2 mi SSW 12.7 mph - N/A   Mostly Cloudy
4:50 PM 80.6 °F 80.8 °F 57.2 °F 45% 29.62 in 6.2 mi SSE 16.1 mph - N/A   Mostly Cloudy
5:20 PM 77.0 °F - 59.0 °F 54% 29.65 in 6.2 mi SSE 17.3 mph - N/A   Mostly Cloudy
5:50 PM 77.0 °F - 59.0 °F 54% 29.65 in 6.2 mi SSE 19.6 mph - N/A   Mostly Cloudy
6:20 PM 75.2 °F - 59.0 °F 57% 29.65 in 6.2 mi SSE 19.6 mph - N/A   Mostly Cloudy
6:50 PM 77.0 °F - 57.2 °F 50% 29.68 in 6.2 mi SSE 16.1 mph - N/A   Mostly Cloudy
7:20 PM 75.2 °F - 57.2 °F 53% 29.68 in 6.2 mi SSE 13.8 mph - N/A   Mostly Cloudy
7:50 PM 75.2 °F - 57.2 °F 53% 29.68 in 6.2 mi SSE 11.5 mph - N/A   Mostly Cloudy
8:50 PM 73.4 °F - 57.2 °F 57% 29.68 in 6.2 mi SSE 9.2 mph - N/A   Mostly Cloudy
9:50 PM 75.2 °F - 57.2 °F 53% 29.68 in 6.2 mi SSE 11.5 mph - N/A   Mostly Cloudy
10:50 PM 73.4 °F - 57.2 °F 57% 29.65 in 6.2 mi SSE 13.8 mph - N/A   Scattered Clouds